Tracking 28790 objects as of 19-Apr-2024
HD Live streaming from Space Station
objects crossing your sky now

CZ-4 DEB

Track CZ-4 DEB now!
10-day predictions


NORAD ID: 20891
Int'l Code: 1990-081BB
Perigee: 864.4 km
Apogee: 1,182.1 km
Inclination: 99.1 °
Period: 105.5 minutes
Semi major axis: 7394 km
RCS: 0.0314 m2 (small)
Launch date: September 3, 1990
Source: People's Republic of China (PRC)
Launch site: Taiyaun Space Center, China (TSC)

Note: This is SATELLITE DEBRIS
Your satellite tracking list
Your tracking list is empty




NASA's NSSDC Master Catalog

Two Line Element Set (TLE):
1 20891U 90081BB  24109.75980597  .00000760  00000-0  83838-3 0  9990
2 20891  99.0799 180.9337 0214856 158.2486 330.2769 13.65401710668497
Source of the keplerian elements: AFSPC